Location: Casa Cappanera
(43.5333°N, 13.3500°E)
Time: 16:20:44
(UTC+00:00)

Daily predictions for brighter satellites

Satellite Brightness Start Highest point End
(mag) Time Altitude Azimuth Time Altitude Azimuth Time Altitude Azimuth
Cosmos 1603 4.5 17:58:08 10° SSE 18:02:53 29° ESE 18:07:39 10° NE
STARLINK-1123 3.9 17:59:52 10° NW 18:03:57 57° NNE 18:08:03 10° ESE
SL-4 R/B 3.5 18:04:39 10° SSE 18:06:02 12° SE 18:07:26 10° ESE
Cosmos 2237 Rocket 4.3 18:02:10 10° WSW 18:07:07 31° NW 18:12:05 10° N
STARLINK-1097 3.8 18:04:50 10° NW 18:08:57 62° NNE 18:13:03 10° ESE
H-2A R/B 2.4 18:04:45 10° SE 18:09:45 47° ENE 18:14:40 10° N
Cosmos 1939 Rocket 4.1 18:06:04 10° S 18:09:51 44° W 18:13:37 10° NNW
Cosmos 2297 4.0 18:04:16 10° NNW 18:09:57 74° WSW 18:15:38 10° SSE
Cosmos 1726 3.6 18:09:17 10° SE 18:11:56 19° E 18:14:36 10° NE
TSX-5 4.0 18:07:26 10° NNW 18:12:30 85° ENE 18:16:23 10° SSE
STARLINK-1099 3.7 18:09:48 10° NW 18:13:56 67° NNE 18:17:59 10° ESE
USA 186 2.6 18:11:33 10° SE 18:14:40 35° ENE 18:17:43 10° N
STARLINK-1104 3.7 18:14:47 10° NW 18:18:56 72° NNE 18:22:47 12° ESE
STARLINK-1144 3.6 18:19:45 10° NW 18:23:54 77° NNE 18:27:33 13° ESE
ARGOS Delta rocket 4.1 18:20:29 10° SSE 18:25:40 83° ENE 18:31:08 10° N
Cosmos 2251 Rocket 3.6 18:22:13 10° S 18:27:25 55° ESE 18:32:40 10° NNE
STARLINK-1103 3.6 18:24:43 10° NW 18:28:53 84° NNE 18:32:20 14° ESE
Cosmos 292 Rocket 3.9 18:24:18 10° NNW 18:29:01 54° ENE 18:33:44 10° SE
Cosmos 1953 2.5 18:26:38 10° SSE 18:30:25 46° E 18:34:14 10° NNE
MONITOR-E 3.9 18:28:45 10° SSE 18:31:18 49° ENE 18:33:54 10° N
Cosmos 2315 Rocket 4.1 18:27:18 10° S 18:33:38 85° W 18:40:03 10° N
STARLINK-1101 3.6 18:29:42 10° NW 18:33:52 90° ESE 18:37:07 16° SE
Resurs 01 Rocket 3.0 18:34:55 15° E 18:37:01 21° ENE 18:40:20 10° NNE
FREGAT/IRIS 2.2 18:34:35 10° SSE 18:37:17 76° ENE 18:40:01 10° N
Aureole 3 3.7 18:34:17 10° S 18:38:32 71° E 18:44:03 10° NNE
STARLINK-1102 3.6 18:34:42 10° NW 18:38:52 84° SW 18:41:55 18° SE
Cosmos 1626 Rocket 3.8 18:35:31 10° NNW 18:39:52 70° W 18:44:11 10° S
NOSS 3-3 (A) 3.8 18:34:17 10° SSW 18:39:59 68° ESE 18:46:25 10° NE
NOSS 3-3 (C) 3.8 18:34:22 10° SSW 18:40:05 67° ESE 18:46:31 10° NE
Cosmos 2369 Rocket 2.3 18:34:43 10° NNW 18:40:24 64° ENE 18:45:28 13° SE
Cosmos 1626 3.8 18:39:01 10° NNW 18:42:27 36° W 18:45:51 10° SSW
STARLINK-1111 3.7 18:39:40 10° WNW 18:43:49 77° SW 18:46:42 19° SE
Cosmos 1943 Rocket 2.2 18:40:52 10° NNW 18:46:26 89° WSW 18:52:01 10° SSE
Cosmos 1437 3.3 18:43:50 10° N 18:46:39 34° ENE 18:47:32 27° ESE
SL-8 R/B 3.8 18:41:54 10° WNW 18:46:41 71° NNE 18:49:51 21° ESE
IRIDIUM 104 4.3 18:41:32 10° N 18:46:44 65° E 18:51:54 10° SSE
STARLINK-1073 3.7 18:44:40 10° WNW 18:48:47 71° SW 18:51:29 21° SE
CZ-2C R/B 3.9 18:44:48 10° NNE 18:49:25 51° E 18:53:56 10° S
Cosmos 1602 Rocket 3.8 18:45:13 10° NNW 18:49:40 72° W 18:54:02 10° S
Cosmos 1470 4.0 18:47:16 10° SSW 18:50:59 44° WNW 18:54:45 10° N
Cosmos 1908 4.1 18:52:23 25° ESE 18:53:31 29° E 18:56:53 10° NNE
STARLINK-1121 3.8 18:49:38 10° WNW 18:53:45 65° SW 18:56:15 22° SE
Ariane Rocket 3.6 18:49:47 10° S 18:54:46 59° WSW 18:59:48 10° NNW
Cosmos 2263 4.2 18:50:09 10° NNW 18:55:43 61° ENE 18:59:31 20° SE
IRIDIUM 114 4.2 18:50:40 10° N 18:55:54 78° E 19:01:07 10° S
STARLINK-1106 4.0 18:54:37 10° WNW 18:58:42 59° SW 19:01:02 24° SSE
Abrixas rocket 3.3 18:56:50 10° W 18:59:36 35° N 19:01:18 19° NE
Cosmos 1726 Rocket 4.0 18:57:25 18° SSE 19:00:14 39° E 19:04:22 10° NNE
Aureole 2 Rocket 2.7 18:57:42 10° NNW 19:01:10 65° WSW 19:03:31 18° S
Cosmos 2074 Rocket 4.0 18:56:20 10° N 19:02:37 73° E 19:08:54 10° SSE
Cosmos 1943 3.1 18:57:23 10° SSW 19:02:59 71° ESE 19:08:40 10° NNE
STARLINK-1112 4.1 18:59:37 10° WNW 19:03:41 54° SW 19:05:50 25° SSE
ATLAS 2AS CENTAUR R/B 3.4 18:57:26 10° NNW 19:04:43 45° NE 19:08:47 24° E
IRIDIUM 103 4.3 18:59:50 10° N 19:05:05 87° W 19:10:18 10° S
ISS -3.6 19:02:55 10° WNW 19:06:15 64° SW 19:07:16 39° SSE
SL-08 RB Rocket 3.7 19:02:46 11° SSE 19:07:06 85° WSW 19:11:43 10° NNW
USA 234 3.3 19:00:50 10° NE 19:07:15 56° SE 19:13:38 10° SSW
Cosmos 1825 Rocket 3.5 19:03:01 10° N 19:07:26 68° E 19:10:01 23° SSE
STARLINK-1128 4.2 19:04:38 10° WNW 19:08:39 49° SW 19:10:37 26° SSE
SPOT 3 Rocket 3.5 19:06:50 15° SSE 19:11:11 83° ENE 19:16:25 10° NNW
STARLINK-1113 4.4 19:09:38 10° WNW 19:13:36 45° SW 19:15:23 27° SSE
SJ-6B 3.7 19:13:43 10° S 19:17:41 50° W 19:21:44 10° NNW
Cosmos 1610 Rocket 4.5 19:11:55 10° N 19:18:04 63° E 19:21:45 25° SSE
Cosmos 1758 Rocket 3.6 19:14:50 10° NNW 19:19:11 75° W 19:22:14 19° S
MOS 1 Rocket 3.5 19:18:43 10° NNE 19:24:03 72° E 19:29:30 10° S
Cosmos 1953 Rocket 3.5 19:21:57 10° N 19:26:25 73° E 19:27:52 42° SSE
CZ-2C R/B 4.3 19:22:42 10° SSW 19:27:19 37° W 19:31:48 10° NNW
Terra 4.0 19:28:43 12° NE 19:28:43 12° NE 19:29:54 10° NE
Cosmos 1606 Rocket 3.6 19:23:53 10° S 19:28:18 81° W 19:32:47 10° N
Cosmos 1818 3.5 19:22:57 10° SSW 19:28:23 87° ESE 19:33:52 10° NE
Cosmos 614 Rocket 3.9 19:27:01 10° S 19:32:12 68° ESE 19:37:24 10° NNE
BREEZE M DEB (TANK) 3.5 19:22:23 10° SW 19:33:01 77° SSE 19:34:31 40° ENE
Cosmos 407 Rocket 3.4 19:30:03 22° S 19:33:16 57° ESE 19:38:18 10° NNE
Cosmos 921 Rocket 4.1 19:29:41 10° N 19:32:50 28° NE 19:32:50 28° NE
Cosmos 2228 3.1 19:30:16 11° SSW 19:34:23 73° W 19:38:43 10° N
CZ-2C R/B 2.4 19:30:50 10° NNE 19:36:02 86° ESE 19:41:14 10° SSW
SPOT 1/Viking Rocket 4.5 19:36:25 30° ENE 19:36:36 31° ENE 19:41:08 10° N
Cosmos 1656 Rocket 3.6 19:32:33 10° NNW 19:38:15 87° ENE 19:40:14 42° SSE
Cosmos 1295 Rocket 4.4 19:37:41 10° N 19:44:00 73° E 19:46:25 40° SSE
SL-4 R/B 2.7 19:41:41 10° WSW 19:43:45 35° WSW 19:43:45 35° WSW
BREEZE-M DEB (TANK) 3.5 19:41:24 10° WNW 19:45:58 60° N 19:45:58 60° N
Cosmos 1726 4.2 19:43:41 10° SW 19:46:57 28° WNW 19:50:13 10° NNW
Cosmos 2341 Rocket 4.1 19:40:51 10° N 19:47:08 57° ENE 19:48:36 47° SE
Cosmos 1340 Rocket 3.0 19:47:47 62° NNE 19:47:47 62° NNE 19:51:15 10° NNE
COSMOS 2455 3.5 19:41:35 10° NNW 19:47:12 39° NE 19:48:18 36° ENE
ERS-1 Rocket 4.1 19:47:59 28° NE 19:47:59 28° NE 19:51:49 10° N
H-2A R/B 4.2 19:45:14 10° SW 19:49:22 23° W 19:53:26 10° NW
Cosmos 2218 Rocket 4.2 20:01:52 10° N 20:07:51 50° ENE 20:07:51 50° ENE
Cosmos 1461 3.7 20:04:11 10° NNW 20:07:55 48° NNE 20:07:55 48° NNE
Cosmos 1023 Rocket 4.4 20:11:23 80° SW 20:11:40 87° WNW 20:16:51 10° NNE
Resurs 01 Rocket 2.7 20:12:28 36° WSW 20:13:15 39° W 20:17:24 10° NNW
USA 245 4.1 20:18:18 80° SSW 20:18:35 84° WSW 20:24:42 10° NNW
Cosmos 2181 Rocket 3.8 20:18:40 73° ESE 20:18:57 74° E 20:25:10 10° NNE
APEX 4.2 20:12:34 10° NNW 20:19:10 75° WSW 20:19:41 70° SSW
Cosmos 2058 Rocket 4.1 20:18:19 39° WSW 20:19:15 45° WNW 20:23:36 10° N
Landsat 7 4.2 20:24:18 60° NNW 20:24:18 60° NNW 20:28:12 10° NNW
NOSS 3-4 (A) 3.8 20:16:23 10° NW 20:23:28 80° WSW 20:24:57 61° SSE
NOSS 3-4 (C) 3.8 20:16:29 10° NW 20:23:35 81° WSW 20:25:02 61° SSE
Cosmos 2369 Rocket 4.4 20:19:56 10° NW 20:23:50 19° W 20:27:19 11° SW
SL-8 Rocket 3.9 20:26:21 10° N 20:32:41 89° W 20:32:55 84° S
Cosmos 864 Rocket 4.5 20:30:55 10° N 20:36:39 72° NE 20:36:39 72° NE
SPOT 5 4.2 20:39:20 29° N 20:39:20 29° N 20:41:33 10° N
Cosmos 2366 rocket 3.9 20:36:51 10° N 20:42:31 77° N 20:42:31 77° N
Spot 2 Rocket 4.4 20:46:23 42° W 20:46:23 42° W 20:51:02 10° NNW
USA 234 3.9 20:43:55 10° NE 20:50:13 52° NNW 20:56:30 10° WSW
ATLAS 2AS CENTAUR R/B 3.3 20:48:42 10° NW 20:55:47 48° WSW 20:56:14 47° SW
BREEZE M DEB (TANK) 3.8 21:02:08 71° NNE 21:02:08 71° NNE 21:15:19 10° ENE
Terra 3.5 21:07:36 30° NNW 21:07:36 30° NNW 21:10:02 10° NNW
Cosmos 1697 Rocket 4.3 21:03:31 10° N 21:06:58 27° NNE 21:06:58 27° NNE
CZ-4C R/B 4.2 21:10:23 10° NNW 21:16:19 29° NE 21:17:32 27° NE
COSMOS 2455 4.2 21:27:34 10° NW 21:31:27 33° WNW 21:31:27 33° WNW
Cosmos 1980 Rocket 4.1 21:31:01 10° N 21:33:52 23° NNE 21:33:52 23° NNE
ATLAS 5 CENTAUR R/B 4.5 22:02:17 15° N 22:02:17 15° N 22:03:56 10° NNE
SL-16 R/B 4.3 22:58:17 10° NNW 23:00:32 23° N 23:00:32 23° N
CZ-4C R/B 3.9 22:58:28 10° NW 23:02:42 41° NW 23:02:42 41° NW
Cosmos 2360 Rocket 4.4 23:08:07 10° N 23:10:44 20° NNE 23:10:44 20° NNE
Cosmos 2322 Rocket 4.3 23:09:37 10° NNW 23:11:48 22° N 23:11:48 22° N
Cosmos 2082 Rocket 4.3 23:44:35 21° NNW 23:44:35 21° NNW 23:47:02 10° N
